Theta_e
309 309 309 309 310 310 310 310 311 311 311 311 311 312 313 314 317 318 324 324 324 323 319 319 320 321 321 322 322 321 314 313 316 321 325 331 335 338 338 337 337 336 341 340 342
309 309 309 310 310 310 310 311 311 311 311 311 312 313 314 316 318 320 324 324 323 320 318 319 320 320 322 322 321 316 312 316 315 322 323 322 336 337 337 337 342 339 340 340 342
310 310 310 310 310 310 311 311 311 311 311 312 312 313 314 317 321 324 321 318 319 317 319 320 320 321 322 320 320 317 316 315 320 323 324 322 324 335 337 337 341 340 340 342 343
309 309 309 310 310 310 310 311 311 311 312 312 313 314 315 317 322 325 322 318 317 319 320 320 320 321 319 319 320 319 319 318 321 324 323 322 335 335 336 337 341 341 340 340 340
312 312 311 311 311 311 311 311 311 311 312 312 313 314 316 318 322 322 321 318 318 320 321 321 321 320 319 317 319 319 320 322 324 327 335 335 335 335 335 337 340 341 341 340 339
314 315 316 317 317 317 315 313 312 312 312 313 313 314 316 318 323 322 320 318 321 321 321 321 320 319 319 318 318 320 320 320 324 338 339 337 336 336 337 335 336 338 338 337 337
316 317 318 319 319 319 319 318 315 313 313 313 313 316 317 321 325 323 321 321 321 321 321 321 321 320 320 316 320 320 320 317 322 328 337 339 340 340 337 334 334 334 333 335 334
315 317 319 320 320 320 317 315 314 313 313 313 316 316 320 324 324 322 321 321 322 322 322 322 322 321 319 319 319 316 316 315 327 333 339 339 349 341 339 339 335 332 331 333 332
314 317 319 320 321 322 321 316 315 315 317 317 317 321 323 325 325 322 321 321 321 321 321 322 321 319 319 316 316 315 319 320 335 338 338 339 345 339 338 335 334 332 330 331 332
313 316 320 320 321 322 323 324 322 318 317 322 320 320 324 326 323 322 321 321 321 321 322 322 320 316 314 316 320 321 323 329 339 339 338 340 341 337 335 334 334 332 330 329 330
313 314 319 319 321 322 323 324 326 326 323 324 325 325 325 326 326 322 321 321 320 320 318 320 319 319 320 319 321 323 323 337 341 336 339 340 337 334 333 332 332 331 329 329 328
313 314 316 318 322 324 325 325 324 326 325 325 325 325 325 326 326 324 323 321 321 320 319 319 320 320 321 320 323 321 321 327 335 333 332 334 337 335 333 331 331 330 330 328 328
313 314 315 317 322 324 324 323 323 325 324 325 327 327 325 324 324 324 323 322 321 321 320 321 321 323 323 322 322 321 321 322 330 335 334 334 336 333 330 330 329 327 326 326 326
313 314 315 317 323 324 323 323 323 325 326 330 329 326 325 324 323 324 324 323 324 324 321 322 323 324 322 324 321 322 321 322 335 324 334 330 336 335 331 327 325 324 324 324 325
312 313 315 321 323 323 323 323 323 325 331 331 323 324 324 323 324 324 324 325 323 324 322 324 326 324 324 325 323 324 322 322 321 319 322 330 333 336 329 329 326 323 322 323 324
312 313 315 317 321 323 323 323 325 326 332 328 323 323 322 323 323 324 324 325 325 325 326 328 328 327 328 325 324 322 322 318 317 316 320 327 332 339 337 329 326 322 321 321 320
313 313 314 316 321 322 321 326 324 327 326 327 324 323 321 322 323 323 325 325 323 324 325 326 325 327 325 322 322 320 317 319 321 320 322 329 332 338 330 326 324 322 319 318 317
313 313 314 318 321 319 326 322 327 328 328 326 325 324 325 325 324 325 325 326 325 323 323 327 326 324 323 322 323 322 318 319 323 322 321 330 334 335 326 324 323 320 319 317 316
313 317 322 322 322 321 327 323 326 328 325 326 327 327 325 328 327 328 328 328 326 324 325 325 327 325 323 322 321 322 322 318 320 320 321 331 331 328 324 323 321 319 317 317 317
320 325 323 323 322 324 321 324 326 324 324 324 325 326 326 327 329 327 329 328 328 325 324 327 326 326 324 322 321 323 322 323 320 326 326 331 331 332 330 326 322 319 318 318 317
324 326 324 322 323 322 317 322 325 324 324 323 325 325 327 328 328 330 327 326 328 325 323 323 322 324 321 322 322 320 322 321 319 319 323 326 327 327 330 325 322 321 318 318 318
322 321 324 322 321 318 319 323 325 322 324 323 323 323 327 325 326 327 326 325 325 325 323 321 319 321 323 322 320 322 323 320 322 325 324 323 323 322 323 322 321 319 319 319 317
324 325 325 325 322 321 322 324 321 321 321 321 322 323 323 326 327 327 324 326 325 324 325 322 321 323 322 321 319 324 325 321 319 319 324 324 322 321 323 324 322 321 319 316 313
325 320 324 323 322 322 321 321 323 324 326 326 325 325 324 326 324 327 327 328 328 327 326 326 323 321 323 322 321 328 328 326 320 321 325 328 327 323 321 322 321 318 313 311 310
321 320 320 317 319 319 319 321 323 324 325 326 325 325 326 327 324 327 328 327 327 327 325 320 321 324 323 326 328 328 327 325 327 327 327 327 325 323 321 320 320 314 311 310 309
319 319 320 321 321 318 316 320 324 325 323 327 325 325 323 324 324 324 326 324 325 324 322 318 320 323 326 326 326 327 325 325 324 323 322 320 319 317 313 312 311 311 310 309 308
317 320 320 323 323 320 320 321 323 325 328 327 326 325 323 323 324 323 323 322 324 321 321 322 321 322 326 325 325 326 324 323 321 319 320 320 319 314 313 311 311 310 309 308 308
Wind_Speed
4 5 6 6 6 7 7 8 8 8 9 10 11 12 14 15 13 11 5 3 4 7 7 6 7 9 15 4 4 2 4 3 4 3 6 9 3 8 7 15 9 6 9 30 30
4 4 5 5 5 6 6 7 7 8 9 10 11 12 14 15 12 6 5 8 9 7 5 8 12 17 6 2 4 5 4 7 6 3 5 0 13 17 9 16 13 29 34 35 31
4 4 4 5 5 5 6 6 7 8 9 9 10 11 13 14 9 4 8 7 4 2 5 9 13 11 3 2 4 4 5 6 13 20 10 1 7 9 16 4 7 31 37 34 32
4 4 5 5 5 5 5 6 7 8 8 9 10 11 12 9 0 5 9 8 2 3 7 11 13 9 2 2 2 1 11 8 9 7 3 6 11 21 21 16 25 30 29 32 30
5 4 4 4 4 4 5 5 6 7 7 8 8 9 11 6 4 5 9 5 3 5 9 11 10 5 2 4 8 3 6 10 12 23 28 44 34 18 30 30 29 30 28 25 23
7 6 6 5 5 5 5 5 6 6 6 6 7 8 9 4 2 2 7 3 3 6 11 13 9 14 4 5 1 9 10 9 12 32 22 29 22 10 19 25 32 31 27 26 22
8 7 6 6 6 6 6 6 6 6 5 5 6 9 11 6 2 5 4 6 9 12 15 12 14 16 16 9 12 8 6 7 24 4 7 14 26 16 16 26 31 27 21 18 14
7 7 7 7 6 6 5 4 4 3 3 3 6 11 8 6 8 6 3 0 3 7 15 15 16 18 5 10 9 8 7 7 11 13 15 16 9 13 15 24 26 22 19 18 14
7 6 6 5 6 7 7 5 3 2 1 3 6 7 9 7 10 1 4 4 8 11 13 11 11 4 3 4 6 7 5 6 8 23 4 9 10 14 15 20 24 23 22 20 19
7 5 4 4 6 7 7 6 3 3 3 5 6 7 4 16 12 4 5 6 12 13 8 3 1 3 4 5 0 2 5 7 8 11 25 20 17 16 17 21 20 21 21 23 21
7 5 3 4 5 7 11 7 7 3 8 11 14 15 16 13 13 8 3 5 11 10 0 4 4 4 1 3 1 1 5 11 10 11 17 16 16 12 14 14 16 16 15 17 18
6 5 3 3 3 6 9 11 14 8 8 17 13 13 11 14 8 7 5 3 1 4 2 5 2 5 4 7 4 7 6 10 11 10 16 16 15 12 13 11 11 11 10 10 12
7 4 4 4 5 4 10 16 15 10 3 9 4 8 8 4 5 11 2 2 2 6 5 5 5 9 7 4 11 4 6 2 8 19 17 20 9 9 10 13 10 10 6 6 8
7 4 3 2 3 4 7 11 11 6 4 6 2 3 5 3 4 3 3 2 4 3 4 6 7 10 9 6 3 7 3 7 21 5 5 6 5 5 8 6 5 3 3 6 6
7 4 2 5 1 6 10 8 9 3 4 1 2 2 4 4 2 1 4 2 3 3 8 1 3 7 8 2 3 3 2 4 4 3 6 3 5 6 11 6 5 2 2 3 4
8 4 4 6 1 6 9 10 4 5 2 3 4 4 2 4 2 4 3 3 6 7 5 1 1 3 1 1 3 2 3 7 4 3 3 5 5 3 2 5 4 3 5 5 6
7 4 4 3 1 7 11 3 4 3 4 7 3 1 1 2 3 3 4 6 1 4 5 6 7 4 6 7 6 8 7 4 5 5 3 3 6 4 5 5 7 11 9 9 6
6 1 1 4 3 8 5 5 6 3 3 4 5 6 4 4 4 3 2 5 7 5 3 3 6 7 9 4 2 3 5 4 4 3 3 5 4 4 5 6 6 8 9 7 3
3 5 8 4 5 5 4 5 3 2 4 5 5 7 6 5 5 5 4 5 5 5 5 3 0 5 6 6 4 5 4 2 4 2 4 2 3 3 4 5 7 11 10 6 4
7 7 6 2 3 7 5 4 3 2 1 6 4 3 5 7 5 4 4 5 3 9 1 2 1 3 2 10 11 6 3 5 4 3 2 1 2 3 10 8 5 9 11 6 5
5 3 5 4 2 3 3 4 4 7 5 5 3 5 2 4 2 3 5 4 7 4 14 3 3 6 4 5 3 6 5 4 4 3 4 3 5 3 2 6 8 10 9 5 2
3 4 11 3 2 3 1 1 5 5 10 7 5 4 4 6 7 4 4 3 15 3 4 4 4 2 2 2 4 5 3 3 4 2 2 3 4 4 3 2 6 7 5 3 2
4 4 16 4 3 4 6 4 5 5 7 5 6 5 6 5 4 3 4 9 11 6 2 0 4 4 8 5 6 6 4 3 4 3 2 3 4 4 3 1 4 4 4 6 7
4 3 5 11 9 2 5 5 5 10 8 11 6 4 5 8 7 3 2 6 6 7 11 6 3 5 4 5 1 3 5 4 3 3 2 2 2 1 2 4 4 5 10 8 6
6 4 5 3 6 6 3 3 5 4 6 12 7 6 4 4 6 4 3 3 7 6 6 4 3 2 2 6 5 4 5 8 5 1 2 2 1 2 2 3 3 13 9 7 7
4 4 4 7 8 6 6 4 2 3 5 4 7 3 8 5 2 2 2 1 2 5 4 4 0 3 5 8 7 9 6 6 4 3 4 2 3 6 12 17 14 9 7 8 6
5 6 3 8 7 3 3 4 1 3 11 7 6 5 8 3 4 7 5 4 1 5 2 3 3 2 2 4 2 5 4 4 3 4 1 2 1 7 6 10 8 7 7 5 7
Wind_Direction
287 278 276 278 280 279 280 285 289 296 302 306 314 320 326 328 325 310 311 333 322 322 340 343 339 325 313 265 192 206 49 287 257 279 263 168 103 96 139 111 57 60 133 149 159
316 307 297 291 283 284 286 285 291 295 300 308 318 325 331 330 329 298 309 313 296 327 9 352 340 339 338 258 181 128 139 232 217 225 290 123 141 144 134 97 98 94 122 144 155
335 322 308 301 301 296 289 294 296 296 302 312 319 329 332 333 335 17 1 331 290 344 12 343 333 334 312 270 213 180 213 179 255 266 271 131 85 40 88 49 168 130 129 141 149
343 326 318 310 301 297 299 300 294 296 305 312 321 331 329 333 32 0 351 332 65 44 357 334 331 342 296 334 315 295 263 244 280 277 25 37 69 63 48 64 122 111 122 135 131
1 349 334 324 323 318 312 297 296 300 307 313 322 331 332 318 289 16 343 316 67 14 349 334 343 352 345 330 330 212 303 332 327 78 86 77 63 73 54 76 109 122 122 121 135
32 27 22 14 5 344 323 312 304 303 302 306 318 320 323 292 307 358 9 85 26 346 337 337 340 343 306 298 201 299 276 281 82 86 72 75 44 80 48 81 87 95 85 96 115
22 13 8 358 347 331 320 308 300 296 294 303 311 318 300 268 276 259 308 322 333 331 327 340 331 330 318 322 323 291 322 13 18 34 150 50 40 63 72 89 79 77 83 87 94
8 6 6 7 2 354 346 328 310 297 297 310 309 315 267 254 285 299 304 176 327 325 318 297 302 312 302 301 346 21 39 36 6 51 15 82 86 77 75 78 73 70 77 92 111
360 356 358 1 12 26 28 28 40 67 10 306 303 310 282 318 316 312 235 275 325 327 316 311 290 273 339 49 13 8 57 29 27 13 107 81 107 72 72 77 77 70 72 82 92
352 342 331 341 4 12 8 340 311 299 283 314 290 309 292 327 347 288 249 266 277 306 329 15 96 33 50 52 73 300 67 51 65 43 74 85 90 72 62 69 75 73 72 75 81
349 335 308 317 341 358 5 35 10 324 282 266 285 277 298 315 306 285 276 272 267 274 232 353 56 258 165 222 101 181 97 106 116 119 73 90 89 68 70 71 73 75 85 88 91
343 332 279 260 310 357 7 13 10 314 309 303 287 279 290 299 304 338 236 244 301 289 162 21 348 277 76 107 137 63 54 88 70 89 97 104 85 72 83 75 82 94 75 79 86
336 326 297 230 223 338 22 4 359 325 279 295 265 262 271 306 264 296 262 210 311 359 39 79 337 97 97 81 68 47 80 35 112 88 113 117 89 96 76 81 63 62 82 78 111
328 316 293 220 211 332 5 5 360 324 54 285 272 247 233 231 277 294 248 271 23 358 103 69 317 93 72 67 122 49 317 128 148 134 183 210 133 138 126 97 68 76 142 154 144
322 298 253 203 322 359 337 330 341 340 50 227 237 296 195 188 338 285 166 170 49 7 88 2 27 70 77 99 82 221 355 60 134 109 102 85 92 157 154 158 163 191 220 152 146
316 277 239 233 185 337 311 303 317 41 315 326 200 203 131 228 271 306 30 87 102 74 37 42 280 33 46 63 39 55 40 34 58 81 62 299 129 145 175 155 150 208 198 183 148
317 271 237 220 231 307 324 309 45 109 325 317 258 81 221 296 273 75 25 18 84 82 20 357 356 328 44 29 6 51 48 351 355 5 220 260 57 81 116 145 175 205 199 192 174
332 260 188 119 323 310 344 52 66 277 317 311 11 81 46 324 3 77 61 34 17 73 87 104 352 8 336 66 306 354 130 156 249 216 228 16 99 129 133 137 177 199 213 206 187
34 107 111 60 23 348 341 53 203 287 297 345 22 50 350 344 103 81 46 38 19 5 115 103 64 335 45 36 42 325 22 268 99 27 75 41 89 153 169 208 188 201 212 212 224
113 111 108 332 339 348 67 225 252 252 349 52 78 40 20 346 51 60 36 344 22 13 111 96 74 10 344 35 19 74 267 12 11 343 19 99 210 209 207 216 213 227 238 244 255
118 101 30 353 271 331 138 238 291 7 72 60 43 52 66 350 60 62 351 348 1 6 65 76 82 301 44 55 359 357 6 33 108 103 159 187 247 195 159 171 201 227 237 228 271
65 55 0 335 44 31 129 255 319 359 42 54 80 82 57 13 20 68 93 320 338 9 43 345 122 24 265 307 13 85 9 65 121 260 68 139 281 41 53 141 197 218 217 301 229
41 32 42 38 72 333 322 332 55 37 22 45 26 19 64 26 82 55 62 360 40 59 80 347 26 14 346 357 18 49 357 39 96 80 175 130 282 24 39 158 221 272 97 110 90
20 31 24 57 53 32 1 347 14 29 61 75 14 55 70 20 16 105 81 25 35 83 69 75 87 145 196 237 121 24 354 5 86 84 196 179 341 319 260 259 272 63 114 88 62
34 52 15 351 344 352 1 342 6 21 66 40 28 31 116 63 18 39 64 32 24 43 42 82 87 65 7 98 90 75 56 35 58 69 103 129 313 270 309 319 53 136 105 83 70
53 25 18 358 332 0 8 11 41 24 38 9 107 58 63 98 79 6 101 106 185 26 53 10 68 77 41 92 84 70 53 80 67 50 66 79 57 89 87 101 92 89 77 72 32
58 39 16 14 0 31 321 302 2 107 33 95 131 84 47 354 300 303 262 267 255 147 111 72 110 63 155 163 36 33 23 48 43 19 142 225 196 152 89 90 90 98 84 49 8